Location: Pensacola
(30.4142°N, 87.2155°W)
Time: 08:55:21
(UTC-06:00)

ISS - Visible Passes

Search period start: 30 January 2023 00:00
Search period end: 09 February 2023 00:00
Orbit: 413 x 419 km, 51.6° (Epoch: 30 January)

Date Brightness Start Highest point End Pass type
(mag) Time Alt. Az. Time Alt. Az. Time Alt. Az.
01 Feb -1.0 19:21:33 10° NW 19:22:03 13° NNW 19:22:03 13° NNW visible
02 Feb -2.7 18:33:06 10° NNW 18:36:03 28° NE 18:36:04 28° NE visible
03 Feb -2.0 19:20:49 10° WNW 19:23:16 32° W 19:23:16 32° W visible
04 Feb -3.8 18:31:51 10° NW 18:35:13 81° SW 18:37:51 15° SE visible
05 Feb -0.4 19:22:05 10° WSW 19:22:44 10° SW 19:23:22 10° SW visible
06 Feb -1.0 18:31:27 10° WNW 18:34:02 21° SW 18:36:37 10° S visible
